Flag for Australia Weather past 2 weeks in Lord Howe Island, Lord Howe Island, Australia

Now
67 °F

Passing clouds.


Feels Like: 67 °F
Forecast: 66 / 68 °F
Wind: 17 mph from Southwest

Location: Lord Howe Island

Current Time: May 22, 2015 at 7:58:44 PM

Latest Report: May 22, 2015 at 6:00 PM


Visibility: N/A

Pressure: 29.72 "Hg

Humidity: 77%

Dew point: 60 °F

Location of Lord Howe IslandLocation

Historic Weather in Lord Howe Island — Graph

°F

Lord Howe Island temperature yesterday

Maximum temperature yesterday: 74 °F (at 1:30 PM)
Minimum temperature yesterday: 65 °F (at 7:30 PM)
Average temperature yesterday: 70 °F

Past Weeks' High & Low Weather Summary

 TemperatureHumidityPressure
High74 °F (May 11, 12:00 PM)94% (May 21, 7:30 PM)30.48 "Hg (May 21, 7:30 PM)
Low54 °F (May 9, 4:30 AM)46% (May 16, 3:00 PM)29.72 "Hg (May 22, 4:30 PM)
Average68 °F66%30.07 "Hg
* Reported May 7 6:00 PM — May 22 6:00 PM, Lord Howe Island, Weather by CustomWeather, © 2015

Note: Actual official high and low records may vary slightly from our data, if they occured in-between our weather recording intervals... More about our weather records

Advertising

Lord Howe Island weather history for previous 24 hours

 ConditionsComfort  
Time TempWeatherWind HumidityBarometerVisibility
6:00 PM
Fri, May 22
67 °FPassing clouds.17 mph77%29.72 "HgN/A
4:30 PM68 °FMild.18 mph77%29.72 "HgN/A
3:00 PM67 °FRain showers. Partly sunny.16 mph85%29.72 "Hg6 mi
1:30 PM70 °FMild.20 mph77%29.75 "HgN/A
12:00 PM69 °FOvercast.15 mph83%29.79 "HgN/A
10:30 AM71 °FMild.8 mph78%29.84 "HgN/A
9:00 AM69 °FPartly sunny.8 mph79%29.86 "Hg16 mi
7:30 AM67 °FMild.15 mph83%29.86 "HgN/A
6:00 AM67 °FOvercast.10 mph85%29.88 "Hg9 mi
4:30 AM67 °FMild.13 mph82%29.87 "HgN/A
3:00 AM66 °FOvercast.10 mph85%29.93 "HgN/A
1:30 AM66 °FMild.10 mph91%29.96 "HgN/A
12:00 AM64 °FOvercast.No wind94%30.02 "HgN/A
10:30 PM
Thu, May 21
65 °FMild.7 mph85%30.01 "HgN/A
9:00 PM66 °FOvercast.7 mph89%30.03 "HgN/A
7:30 PM65 °FMild.2 mph94%30.04 "HgN/A
Weather by CustomWeather, © 2015

See weather overviewHow to use our weather pages